Weather Roundup
Issued by NWS Chicago, IL

Home | Current Version | Previous Version | Graphics & Text | Print | Product List | Glossary On
Versions: 1 2 3 4 5 6 7 8 9 10 11 12 13 14 15 16 17 18 19 20 21 22 23 24 25 26 27 28 29 30 31 32 33 34 35 36 37 38 39 40 41 42 43 44 45 46 47 48 49 50
000
NZUS59 KLOT 291903
HRRLOT

CHICAGO AREA WEATHER ROUNDUP
NATIONAL WEATHER SERVICE CHICAGO/ROMEOVILLE IL
200 PM CDT SAT APR 29 2017

NOTE: "FAIR" INDICATES FEW OR NO CLOUDS BELOW 12,000 FEET WITH NO
SIGNIFICANT WEATHER AND/OR OBSTRUCTIONS TO VISIBILITY.

* THESE STATIONS ARE NOT UNDER NWS QUALITY CONTROL. THEY ALSO MAY NOT
  REPORT WEATHER SUCH AS PRECIPITATION OR FOG.

ILZ005-006-012>014-019>023-292000-
NORTHEAST ILLINOIS

CITY           SKY/WX    TMP DP  RH WIND       PRES   REMARKS
OHARE          LGT RAIN  40  36  86 N21G31    30.16F FOG
MIDWAY         LGT RAIN  41  38  89 N23G37    30.13F
AURORA         LGT RAIN  41  37  86 NE24G33   30.11F FOG
LANSING*       LGT RAIN  42  41  97 N9G33     30.13F
JOLIET*        LGT RAIN  43  41  94 NE17G29   30.08F
WAUKEGAN       LGT RAIN  39  34  82 N15G24    30.20F
DUPAGE AIRPORT LGT RAIN  39  37  92 NE22G28   30.13F FOG
WHEELING       RAIN      39  37  92 N16G24    30.19F FOG
KANKAKEE*      CLOUDY    44  42  93 NE14G23   30.09R
MORRIS*        RAIN      42  40  92 NE8G24    30.08F
NORTHERLY ISL    N/A     40  36  86 MISG        N/A
$$

WIZ051-052-058>065-066-070>072-292000-
SOUTHEAST WISCONSIN

CITY           SKY/WX    TMP DP  RH WIND       PRES   REMARKS
MILWAUKEE      CLOUDY    41  32  70 N15G31    30.27S
KENOSHA*       CLOUDY    41  31  67 NE17G25   30.23F
RACINE*        CLOUDY    40  31  70 N17G25    30.27S
WAUKESHA       SUNNY     39  28  65 NE16G24   30.28R
WEST BEND      CLOUDY    41  32  70 NE13G20   30.28S
$$

INZ001>003-010>013-019-020-292000-
NORTHWEST INDIANA

CITY           SKY/WX    TMP DP  RH WIND       PRES   REMARKS
GARY*          LGT RAIN  43  39  87 N17G35    30.11F
MICHIGAN CITY* NOT AVBL
RENSSELAER*    NOT AVBL
VALPARAISO     LGT RAIN  48  47  96 NE9G18    30.09F FOG
$$

LMZ740>746-292000-
SOUTHERN LAKE MICHIGAN

STATION/POSITION TIME  SKY/WX   TEMP WIND        PRES    VSBY
                                AIR  DIR/SP/G
                 (UTC)          (F)  (DEG/KT/KT) (MB)    (MI)
HARRISON CRIB    1830            41   10/ 29/ 32   N/A
BURNHAM HARBOR   1900            40  330/ 18/ 24   N/A
CALUMET HARBOR   1830            41  350/ 16/ 23 1020.7F
BURNS HARBOR     1840            43   20/ 25/ 27 1019.3F
MICHIGAN CITY    1840            42   10/ 23/ 24   N/A
$$

ABBREVIATIONS USED IN REMARKS
   TC - TEMPERATURE IN CELSIUS
  WCI - WIND CHILL INDEX
   HX - HEAT INDEX
  VSB - VISIBILITY
$$




USA.gov is the U.S. government's official web portal to all federal, state and local government web resources and services.